FW9002 Weather Reports


Display with metric or nautical units.
time (UTC)temp
F
wind
direction
speed
MPH
gust
MPH
rain 1hr
in
rain 24hr
in
rain mn
in
humidity
%
barometer
mb
20260502215959 90 160 3.0 3.0 0.00 0.00 0.00 14 1011.1
20260502215457 90 88 4.0 6.0 0.00 0.00 0.00 14 1011.1
20260502214954 91 300 3.0 3.0 0.00 0.00 0.00 12 1011.5
20260502214451 91 300 3.0 3.0 0.00 0.00 0.00 12 1011.5
20260502213948 90 225 3.0 3.0 0.00 0.00 0.00 12 1011.7
20260502213444 89 113 1.0 1.0 0.00 0.00 0.00 13 1011.7
20260502212943 89 268 3.0 3.0 0.00 0.00 0.00 13 1011.7
20260502212441 89 220 5.0 7.0 0.00 0.00 0.00 12 1011.6
20260502211938 89 233 3.0 3.0 0.00 0.00 0.00 13 1011.5
20260502211434 89 248 2.0 3.0 0.00 0.00 0.00 13 1011.6
20260502210932 90 247 2.0 2.0 0.00 0.00 0.00 13 1011.9
20260502210428 90 3 2.0 2.0 0.00 0.00 0.00 14 1011.7
20260502205926 89 57 0.0 0.0 0.00 0.00 0.00 14 1011.9
20260502205421 89 353 0.0 0.0 0.00 0.00 0.00 15 1012.0
20260502204919 88 142 2.0 3.0 0.00 0.00 0.00 14 1012.0
20260502204416 89 70 1.0 1.0 0.00 0.00 0.00 17 1012.4
20260502203914 89 59 1.0 1.0 0.00 0.00 0.00 17 1012.2
20260502203411 89 359 2.0 2.0 0.00 0.00 0.00 16 1012.4
20260502202906 88 78 4.0 3.0 0.00 0.00 0.00 17 1012.4
20260502202404 88 126 1.0 1.0 0.00 0.00 0.00 17 1012.6
20260502201902 88 117 3.0 5.0 0.00 0.00 0.00 16 1012.6
20260502201357 89 239 6.0 9.0 0.00 0.00 0.00 14 1012.6
20260502200854 88 265 2.0 2.0 0.00 0.00 0.00 18 1012.7
20260502200350 87 285 2.0 3.0 0.00 0.00 0.00 18 1012.8
20260502195848 87 20 2.0 2.0 0.00 0.00 0.00 19 1012.8
20260502195344 87 110 3.0 3.0 0.00 0.00 0.00 18 1012.8
20260502194841 86 136 2.0 2.0 0.00 0.00 0.00 20 1012.8
20260502194338 86 92 2.0 3.0 0.00 0.00 0.00 19 1013.0
20260502193834 87 136 0.0 1.0 0.00 0.00 0.00 19 1013.0
20260502193331 85 82 2.0 2.0 0.00 0.00 0.00 22 1012.9
20260502192827 86 192 4.0 5.0 0.00 0.00 0.00 20 1012.8
20260502192324 87 278 3.0 3.0 0.00 0.00 0.00 20 1013.0
20260502191821 87 40 4.0 5.0 0.00 0.00 0.00 21 1012.9
20260502191319 87 91 1.0 1.0 0.00 0.00 0.00 21 1013.3
20260502190816 87 108 3.0 3.0 0.00 0.00 0.00 22 1013.2
20260502190313 86 81 2.0 2.0 0.00 0.00 0.00 20 1013.5
20260502185809 87 90 2.0 5.0 0.00 0.00 0.00 21 1013.2
20260502185305 86 110 2.0 3.0 0.00 0.00 0.00 21 1013.4
20260502184802 85 87 1.0 2.0 0.00 0.00 0.00 22 1013.5
20260502184257 85 118 2.0 2.0 0.00 0.00 0.00 23 1013.8
20260502183754 85 73 3.0 5.0 0.00 0.00 0.00 23 1014.0
20260502183250 84 186 4.0 6.0 0.00 0.00 0.00 23 1013.9
20260502182745 84 29 2.0 3.0 0.00 0.00 0.00 24 1014.0
20260502182241 84 113 4.0 5.0 0.00 0.00 0.00 24 1013.8
20260502181738 84 107 2.0 3.0 0.00 0.00 0.00 24 1014.2
20260502181237 84 99 1.0 2.0 0.00 0.00 0.00 24 1014.4
20260502180734 84 57 2.0 2.0 0.00 0.00 0.00 24 1014.2
20260502180232 83 73 3.0 5.0 0.00 0.00 0.00 25 1014.4
20260502170156 79 116 5.0 6.0 0.00 0.00 0.00 29 1014.9
20260502164142 79 83 3.0 3.0 0.00 0.00 0.00 30 1014.5
20260502163638 79 67 8.0 9.0 0.00 0.00 0.00 30 1014.6
20260502163135 78 72 6.0 9.0 0.00 0.00 0.00 31 1014.5
20260502162632 78 88 7.0 10.0 0.00 0.00 0.00 31 1014.6
20260502162129 78 103 4.0 6.0 0.00 0.00 0.00 31 1014.8
20260502161626 78 89 7.0 9.0 0.00 0.00 0.00 32 1014.7
20260502161123 77 43 5.0 6.0 0.00 0.00 0.00 32 1014.6
20260502160621 77 67 3.0 3.0 0.00 0.00 0.00 33 1014.8
20260502160120 77 93 6.0 8.0 0.00 0.00 0.00 33 1014.5
20260502152034 75 171 6.0 11.0 0.00 0.00 0.00 34 1014.3
20260502151531 74 20 6.0 8.0 0.00 0.00 0.00 35 1014.4
20260502151028 74 76 3.0 3.0 0.00 0.00 0.00 36 1014.5
20260502150526 74 130 8.0 11.0 0.00 0.00 0.00 35 1014.5
20260502130410 68 114 2.0 7.0 0.00 0.00 0.00 40 1012.7
20260502123353 67 101 4.0 7.0 0.00 0.00 0.00 41 1012.5
20260502122850 67 87 3.0 5.0 0.00 0.00 0.00 41 1012.1
20260502122345 67 138 3.0 6.0 0.00 0.00 0.00 41 1012.2
20260502121844 67 137 3.0 7.0 0.00 0.00 0.00 41 1012.1
20260502121341 66 55 3.0 5.0 0.00 0.00 0.00 41 1012.1
20260502120839 66 94 2.0 2.0 0.00 0.00 0.00 41 1012.2
20260502120334 63 121 3.0 3.0 0.00 0.00 0.00 42 1012.2
20260502115832 61 140 3.0 3.0 0.00 0.00 0.00 42 1012.1
20260502115329 58 93 2.0 3.0 0.00 0.00 0.00 42 1012.2
20260502114826 57 57 1.0 1.0 0.00 0.00 0.00 43 1012.4
20260502114323 57 53 0.0 0.0 0.00 0.00 0.00 43 1012.2
20260502113819 57 45 0.0 0.0 0.00 0.00 0.00 43 1012.1
20260502113317 57 34 0.0 0.0 0.00 0.00 0.00 43 1012.4
20260502112816 57 33 0.0 0.0 0.00 0.00 0.00 43 1012.5
20260502112312 57 3 0.0 0.0 0.00 0.00 0.00 44 1012.5
20260502111810 58 3 0.0 0.0 0.00 0.00 0.00 43 1012.4
20260502111307 58 3 0.0 0.0 0.00 0.00 0.00 42 1012.5
20260502110804 60 3 0.0 1.0 0.00 0.00 0.00 41 1012.5
20260502110302 60 173 1.0 1.0 0.00 0.00 0.00 38 1012.5
20260502105800 60 181 2.0 2.0 0.00 0.00 0.00 39 1012.0
20260502105256 59 154 1.0 1.0 0.00 0.00 0.00 39 1012.6
20260502104754 59 118 1.0 1.0 0.00 0.00 0.00 41 1012.6
20260502104251 59 91 0.0 0.0 0.00 0.00 0.00 40 1012.6
20260502103749 59 90 0.0 0.0 0.00 0.00 0.00 41 1012.2
20260502103246 59 90 0.0 0.0 0.00 0.00 0.00 41 1012.4
20260502102743 59 90 0.0 0.0 0.00 0.00 0.00 40 1012.0
20260502102239 59 90 0.0 0.0 0.00 0.00 0.00 40 1012.1
20260502101738 60 90 0.0 0.0 0.00 0.00 0.00 40 1012.0
20260502101235 60 91 0.0 0.0 0.00 0.00 0.00 39 1011.9
20260502100733 60 91 0.0 0.0 0.00 0.00 0.00 39 1012.0
20260502100232 60 90 0.0 0.0 0.00 0.00 0.00 39 1011.8
20260502091206 62 89 0.0 0.0 0.00 0.00 0.00 36 1011.8
20260502090703 62 89 0.0 0.0 0.00 0.00 0.00 35 1011.9
20260502090200 62 88 0.0 0.0 0.00 0.00 0.00 36 1011.8
20260502071055 68 89 0.0 0.0 0.00 0.00 0.00 31 1011.9
20260502070553 68 112 0.0 0.0 0.00 0.00 0.00 30 1012.2
20260502070051 68 114 1.0 1.0 0.00 0.00 0.00 30 1012.0
20260502065549 67 62 2.0 2.0 0.00 0.00 0.00 30 1011.9
20260502065047 67 73 0.0 1.0 0.00 0.00 0.00 31 1012.0
20260502064545 66 69 1.0 1.0 0.00 0.00 0.00 32 1011.9
20260502064042 67 32 1.0 1.0 0.00 0.00 0.00 31 1011.9
20260502063540 67 344 0.0 0.0 0.00 0.00 0.00 31 1011.9
20260502063037 67 344 0.0 0.0 0.00 0.00 0.00 30 1011.7
20260502062534 67 344 0.0 0.0 0.00 0.00 0.00 31 1011.7
20260502062032 67 344 0.0 0.0 0.00 0.00 0.00 30 1011.6
20260502061530 67 344 0.0 0.0 0.00 0.00 0.00 30 1011.7
20260502061027 68 344 0.0 0.0 0.00 0.00 0.00 30 1011.9
20260502060522 68 344 0.0 0.0 0.00 0.00 0.00 29 1011.5
20260502060019 68 344 0.0 0.0 0.00 0.00 0.00 30 1011.5
20260502055516 68 344 0.0 0.0 0.00 0.00 0.00 30 1011.7
20260502055015 68 344 0.0 0.0 0.00 0.00 0.00 30 1011.3
20260502054513 68 344 0.0 0.0 0.00 0.00 0.00 30 1011.3
20260502054010 68 344 0.0 0.0 0.00 0.00 0.00 30 1011.3
20260502053507 68 344 0.0 0.0 0.00 0.00 0.00 30 1011.2
20260502053005 69 344 0.0 0.0 0.00 0.00 0.00 29 1011.3
20260502052503 69 344 0.0 0.0 0.00 0.00 0.00 30 1011.4
20260502052001 69 344 0.0 0.0 0.00 0.00 0.00 29 1011.4
20260502051459 69 344 0.0 0.0 0.00 0.00 0.00 29 1010.9
20260502050955 69 344 0.0 0.0 0.00 0.00 0.00 29 1011.4
20260502050452 69 344 0.0 0.0 0.00 0.00 0.00 29 1011.2
20260502045949 70 346 0.0 0.0 0.00 0.00 0.00 29 1011.2
20260502045446 70 346 0.0 0.0 0.00 0.00 0.00 28 1011.1
20260502044943 70 346 0.0 0.0 0.00 0.00 0.00 28 1011.2
20260502044438 69 346 0.0 0.0 0.00 0.00 0.00 29 1011.0
20260502043936 69 346 0.0 0.0 0.00 0.00 0.00 29 1011.0
20260502043434 69 346 0.0 0.0 0.00 0.00 0.00 29 1010.9
20260502042933 68 346 0.0 0.0 0.00 0.00 0.00 30 1011.1
20260502042430 69 346 0.0 0.0 0.00 0.00 0.00 29 1010.9
20260502041927 69 346 0.0 0.0 0.00 0.00 0.00 29 1010.9
20260502041425 70 346 0.0 0.0 0.00 0.00 0.00 28 1010.9
20260502040922 71 346 0.0 0.0 0.00 0.00 0.00 28 1010.6
20260502040418 71 346 0.0 0.0 0.00 0.00 0.00 27 1010.6
20260502035915 72 346 0.0 0.0 0.00 0.00 0.00 27 1010.6
20260502035411 72 346 0.0 0.0 0.00 0.00 0.00 26 1010.4
20260502034909 72 346 0.0 0.0 0.00 0.00 0.00 26 1010.4
20260502034408 72 346 0.0 0.0 0.00 0.00 0.00 25 1010.4
20260502033905 72 346 0.0 0.0 0.00 0.00 0.00 26 1010.3
20260502033403 73 346 0.0 0.0 0.00 0.00 0.00 25 1010.1
20260502032859 73 346 0.0 0.0 0.00 0.00 0.00 25 1009.9
20260502032355 72 346 0.0 0.0 0.00 0.00 0.00 25 1010.1
20260502031853 73 346 0.0 0.0 0.00 0.00 0.00 25 1009.9
20260502031351 73 346 0.0 0.0 0.00 0.00 0.00 24 1010.0
20260502030849 74 346 0.0 0.0 0.00 0.00 0.00 24 1010.1
20260502030347 74 346 0.0 0.0 0.00 0.00 0.00 24 1009.8
20260502025844 74 346 0.0 0.0 0.00 0.00 0.00 24 1009.7
20260502025342 75 346 0.0 0.0 0.00 0.00 0.00 23 1009.7
20260502024839 75 346 0.0 0.0 0.00 0.00 0.00 23 1009.6
20260502024337 76 346 0.0 0.0 0.00 0.00 0.00 22 1009.6
20260502023835 76 348 0.0 0.0 0.00 0.00 0.00 22 1009.3
20260502023332 77 348 0.0 0.0 0.00 0.00 0.00 22 1009.6
20260502022830 77 348 0.0 0.0 0.00 0.00 0.00 21 1009.6
20260502022326 78 340 0.0 0.0 0.00 0.00 0.00 21 1009.3
20260502021823 78 340 0.0 0.0 0.00 0.00 0.00 20 1009.3
20260502021320 79 345 0.0 0.0 0.00 0.00 0.00 20 1009.3
20260502020817 79 354 0.0 0.0 0.00 0.00 0.00 19 1009.2
20260502020315 80 18 2.0 2.0 0.00 0.00 0.00 19 1009.0
20260502015812 80 327 0.0 0.0 0.00 0.00 0.00 19 1009.2
20260502015309 81 355 1.0 0.0 0.00 0.00 0.00 18 1009.1
20260502014806 82 296 2.0 2.0 0.00 0.00 0.00 18 1009.1
20260502014303 82 303 1.0 1.0 0.00 0.00 0.00 18 1009.1
20260502013759 83 279 1.0 1.0 0.00 0.00 0.00 17 1008.9
20260502013255 83 291 4.0 5.0 0.00 0.00 0.00 16 1009.0
20260502012751 84 296 3.0 5.0 0.00 0.00 0.00 17 1008.9
20260502012249 84 288 3.0 5.0 0.00 0.00 0.00 17 1008.7
20260502011746 84 278 2.0 2.0 0.00 0.00 0.00 17 1009.0
20260502011242 84 320 2.0 2.0 0.00 0.00 0.00 17 1008.8
20260502010740 84 22 0.0 0.0 0.00 0.00 0.00 17 1008.8
20260502010236 85 305 2.0 3.0 0.00 0.00 0.00 17 1008.8
20260502005733 85 358 3.0 5.0 0.00 0.00 0.00 16 1008.6
20260502005231 85 294 2.0 2.0 0.00 0.00 0.00 16 1008.5
20260502004728 85 12 2.0 5.0 0.00 0.00 0.00 16 1008.7
20260502004224 85 276 2.0 3.0 0.00 0.00 0.00 16 1008.7
20260502003722 85 301 2.0 2.0 0.00 0.00 0.00 16 1008.9
20260502003219 86 310 5.0 6.0 0.00 0.00 0.00 16 1008.6
20260502002714 86 4 1.0 2.0 0.00 0.00 0.00 17 1008.7
20260502002213 86 297 2.0 3.0 0.00 0.00 0.00 17 1008.7
20260502001709 86 314 1.0 1.0 0.00 0.00 0.00 17 1008.8
20260502001208 86 354 4.0 5.0 0.00 0.00 0.00 17 1008.7
20260502000704 86 299 5.0 8.0 0.00 0.00 0.00 17 1008.7
20260502000203 86 352 3.0 3.0 0.00 0.00 0.00 17 1008.7
20260501235652 86 309 2.0 3.0 0.00 0.00 0.00 17 1008.6
20260501235148 85 24 3.0 5.0 0.00 0.00 0.00 18 1008.8
20260501234644 86 355 5.0 9.0 0.00 0.00 0.00 18 1008.5
20260501234142 86 5 3.0 5.0 0.00 0.00 0.00 17 1008.8
20260501233639 87 16 4.0 8.0 0.00 0.00 0.00 17 1008.7
20260501233136 87 12 2.0 2.0 0.00 0.00 0.00 17 1008.6
20260501232632 87 19 1.0 1.0 0.00 0.00 0.00 17 1008.7
20260501232130 87 293 3.0 3.0 0.00 0.00 0.00 17 1008.6
20260501231627 87 5 3.0 5.0 0.00 0.00 0.00 17 1008.7
20260501231126 87 291 2.0 3.0 0.00 0.00 0.00 17 1008.9
20260501230624 87 1 2.0 2.0 0.00 0.00 0.00 17 1008.7
20260501230122 87 320 2.0 2.0 0.00 0.00 0.00 17 1008.6
20260501225619 87 261 1.0 1.0 0.00 0.00 0.00 18 1008.7
20260501225115 87 317 3.0 3.0 0.00 0.00 0.00 18 1009.0
20260501224612 87 312 7.0 8.0 0.00 0.00 0.00 17 1009.0
20260501224109 86 358 3.0 5.0 0.00 0.00 0.00 17 1009.0
20260501223606 86 17 2.0 2.0 0.00 0.00 0.00 18 1008.9
20260501223102 86 296 3.0 6.0 0.00 0.00 0.00 19 1009.1
20260501222558 85 259 3.0 3.0 0.00 0.00 0.00 17 1009.1
20260501222055 86 245 5.0 5.0 0.00 0.00 0.00 18 1009.1
20260501221552 86 298 3.0 6.0 0.00 0.00 0.00 18 1009.3
20260501221049 86 299 2.0 2.0 0.00 0.00 0.00 18 1009.6
20260501220547 86 300 4.0 5.0 0.00 0.00 0.00 18 1009.3